logo

  • home
  • head
  • itnews
  • product
  • mobile
  • game
  • benchmark
  • analysis
  • blog

드라마, 뮤지컬 / 미국 / 118분 / 2020 .03.12 개봉 / [국내] 12세 관람가 감독 : 루퍼트 굴드 출연 : 르...
드라마, 전쟁 / 미국 / 119분 / 2020 .02.19 개봉 / [국내] 15세 관람가 감독 : 샘 멘데스 출연 : 조지 맥케...

(수원=국제뉴스) 김만구 기자 = 아주대병원이 '닥터헬기'와 경기남부권역외상센터 운영에 필요한 의료진을 충원해달라는 이국종 교수(경기남부권역외상센터장)의 요구를 묵살했던 내용이 담긴 병원 내부 문서가 14일 확인됐다. 


경기도 관계자는 "아주대병원 측은 간호사는 32명이면 충분하고, 인건비를 기존 간호사 월급으로 사용한 것도 문제가 없다고 했지만, 결과적으로 단 1명도 증원해 주지 않은 닥터헬기 전담 간호사 인건비를 받아서 기존 간호사 월급으로 사용한 것이나 마찬가지"라면서 "이 교수가 국감장에서 "괴롭다. 여기까지 인 것 같다"고 표현한 이유를 알 수 있을 것 같다"고 했다.

병원 측은 이 교수가 3개월 후에 요구한 닥터헬기 전담 간호사 1명 증원 요청도 불허했던 것으로 알려졌다. 


원문보기 - http://www.gukjenews.com/news/articleView.html?idxno=1226893






List of Articles
번호 제목 날짜 조회 수
공지 AMD 젠 아키텍처 분석 (프론트엔드, OP캐시, CCX, 인피니... 6 2017.07.23 42892
1500 BTS 컴백에 맞춰 미국 팬들 노숙 시작 1 2020.02.21 21
1499 글로벌 문화대통령 BTS (방탄소년단) 'ON' Kinetic Manife... 3 2020.02.21 157
1498 CNN·BBC "韓 '대구 아웃브레이크'..세계확산 둔화 희망 무... 5 2020.02.21 68
1497 또 대구,, 전주서 28세 남성 코로나19 확진 1 2020.02.20 76
1496 군대 첫 확진자 발생..대구 휴가 다녀온 '제주 근무' 해군... 2 2020.02.20 64
1495 [속보] 코로나19 확진자 104명..청도대남병원서 국내 첫 ... 4 2020.02.20 53
1494 코로나19 환자 총 82명..대구·경북 30명·서울 1명 추가 확진 2 2020.02.20 26
1493 31번 접촉 15명 확진.. 대구·경북'슈퍼전파' 1 2020.02.20 86
1492 정부 "대구 봉쇄? 검토한 바 없다.. 상황 엄중함은 인식" 4 2020.02.19 162
1491 '코로나19' 집단발병지 된 대구..감염원 '미스터리' 1 2020.02.19 67
1490 글로벌 문화대통령 BTS(방탄소년단), 21일부터 본격 컴백 1 2020.02.17 91
1489 [PUBG] 테스트 서버 - PC 1.0 버전 패치노트 #6.2 1 2020.02.17 84
1488 [로스크아크] 밸런스 패치 등 2월 12일(수) 업데이트 내역... 1 2020.02.17 47
1487 세계 최대 게임 리그, 오버워치 리그 2020 시즌 본격 개막 1 2020.02.17 101
1486 공정위, 네이버 창업자 이해진 검찰 고발 1 2020.02.17 100
1485 [TF초점] '핫'했던 지난해 게임업계..빅5 성적표는? 1 2020.02.17 38
1484 '코로나 부실 대응'..시진핑·아베 리더십 위기 1 2020.02.17 36
1483 아베 정권 지지율 급락·41%에 그쳐..지지보다 반대가 많아 1 2020.02.17 78
1482 엄청 비싼 서울 집, 누가 와서 샀나요..최근 4년 구매자 보니 1 2020.02.17 81
1481 목표 꿈의 직장 1위는 '공기업', 사기업은 삼성을 밀어내... 2 2020.02.17 44
1480 '이재용 프로포폴 의혹' 강력부 배당..삼성, 강력 부인 1 2020.02.13 149
1479 세계 최고 모바일RPG "넥슨 V4", 신규 서버 및 신규 직업 ... 2 2020.02.12 194
1478 봉준호·BTS···'韓 소프트파워' 세계를 홀렸다 1 2020.02.12 132
1477 非영어 첫 '오스카 작품상'…봉준호 역사를 쓰다 1 2020.02.12 42
1476 블리자드 내부에서는 만족, 디아블로 이모탈 올해 테스트 1 2020.02.09 42
1475 황혼기 맞은 PS4와 Xbox One, 스위치 홀로 전성기 1 2020.02.09 90
1474 추락하는 변호사 몸값..이젠 6급도 아닌 7급 대우 2 2020.02.08 36
1473 BTS (방탄소년단) 'Black Swan' Dance Practice 1 2020.02.08 101
1472 저스틴 비버 제친 방탄소년단, 소셜50→빌보드200 차트서도... 1 2020.02.08 61
1471 [V4] 신규 캐릭 아처 및 신서버 오픈 1 2020.02.03 128
1470 '엎친 데 덮친 격' 중국서 치사율 높은 조류인플루엔자도 ... 2 2020.02.02 66
1469 교민 포용한 아산·진천 주민들...'응원메시지' 봇물 1 2020.02.01 84
1468 신종 코로나 바이러스 국민들 불안감 '증폭', 컨트롤 타워... 5 2020.02.01 458
1467 전화 안받고..행방 모르고..우한입국자 전수조사 오리무중 1 2020.01.31 191
1466 박원순 "7번 환자, 어제 확진판정..질본 왜 즉시 공개 안... 1 2020.01.31 50
1465 글로벌 문화대통령 BTS(방탄소년단) - Black Swan 1 2020.01.30 157
1464 "복 나간다 다리 떨지마" 정말 떨면 안되나 1 2020.01.26 113
1463 충격) 우한 현지 간호사 폭로 영상, 현재까지 9만명 이상 ... 4 2020.01.25 125
1462 충격) 중국의 실제상황 영상, 어디까지 은폐하고 있는것인가 3 2020.01.25 190
1461 '스트레스 받으면 흰머리카락 는다'는 말은 진짜였다 1 2020.01.24 41
1460 [여론조사] 대선후보 선호도 1위 이낙연, 2위와 격차 점차... 1 2020.01.22 113
1459 [기적의검] 1월 업데이트 안내 1 2020.01.22 76
1458 [로스크아크] 신년 감사제 - 캐릭터 성별 등 대규모 추가 ... 1 2020.01.22 70
1457 [V4] 멜로디의 황금빛 설날맞이 이벤트 3종 안내 1 2020.01.22 47
1456 조이콘을 터치펜으로, 닌텐도 신규 특허 공개 1 2020.01.22 42
1455 [PUBG] 테스트 서버 - PC 1.0 버전 패치노트 #6.1 1 2020.01.19 70
1454 BTS(방탄소년단) - Black Swan(블랙스완) 1 2020.01.18 165
1453 국민이 신뢰하는 방송사..JTBC 추락, MBC 상승 4 2020.01.18 51
1452 대한용접협회 "주예지, 그런 건 사과 아냐..제대로 해라" 1 2020.01.15 36
» [단독] 아주대병원 '이국종 닥터헬기' 운영 방해 문서 첫 ... 1 2020.01.15 140
1450 [단독] '돈 안 되는' 외상센터?.."이국종에 줄 병실은 없다" 2 2020.01.14 162
1449 문재인 대통령 신년 기자회견 영상 [2020년 1월 14일] 1 2020.01.14 109
1448 온라인 강사가 용접기사 직업 비하 동영상 3 2020.01.14 134
1447 [단독] "때려쳐, 이 XX야"..욕설 세례 이국종 '한국 떠날까' 2 2020.01.13 33
1446 정세균 국무총리 후보자 임명동의안 국회 통과 1 2020.01.13 82
1445 법무부, 검찰 직제개편 발표 2 2020.01.13 150
1444 검찰개혁 입법 완료 - 검경 수사권조정까지 모두 통과 1 2020.01.13 186
1443 [음악감상] PelleK x 이라온 - Two in the Ruins 1 2020.01.12 209
1442 [신년 여론조사] 차기 대선 이낙연 35.3% 독주...영남서도... 1 2020.01.11 83
1441 수면내시경 중 쏟아진 험담..녹음기 켜는 환자들 1 2020.01.11 60
1440 추다르크, 검찰 중간 인력 대상 2차 인사태풍 예고 3 2020.01.11 193
1439 글로벌 문화대통령 BTS 효과 - 전 세계에 "한류 열풍" 한... 2 2020.01.10 90
1438 글로벌 문화대통령 BTS(방탄소년단), 컴백 트레일러 1 2020.01.10 111
1437 검사장 전출식 날 청와대 압수수색.. 물러섬 없는 검찰 1 2020.01.10 31
1436 추다르크, 검찰에 첫 특별지시 "앞으로 허락받아라" 2 2020.01.10 121
1435 우크라 여객기 추락, 토르-M1 미사일로 격추? 1 2020.01.10 95
1434 이낙연 총리, 추 장관에 '윤석열 항명' 엄정 대처 지시 2 2020.01.10 133
1433 이해찬 "검찰 항명, 그냥 넘길 수 있는 일 아니다" 1 2020.01.10 64
1432 [속보] '검경 수사권 조정' 형사소송법 개정안, 한국당 불... 2 2020.01.09 107
1431 우크라 '추락 여객기, 이란 보유 러 미사일 피격 가능성' ... 1 2020.01.09 80
1430 인사 바로 다음 날 압수수색..'靑 겨냥 수사' 재개 1 2020.01.09 42
1429 추다르크, 본격적인 검찰 인사 시작 1 2020.01.09 122
1428 이란서 우크라 여객기 추락, 170여명 전원사망 1 2020.01.08 82
1427 이란, 미군기지 미사일 공격 "미군 80명 사망" 1 2020.01.08 59
1426 이슬람 무장단체, 케냐 미군기지 공격…헤즈볼라 "미군이 ... 1 2020.01.06 45
1425 트와이스 "웅앵웅" 발언, 무슨 뜻일까 3 2020.01.06 145
1424 이란, 미국에 대한 가혹한 보복 예고,, 전쟁 발발하나 1 2020.01.06 98
1423 봉준호 ‘기생충’ 골든글로브 외국어영화상 영예 1 2020.01.06 63
1422 지효 '웅앵웅' 발언→뜻 관심→'남성비하' 설왕설래 1 2020.01.06 71
1421 [골든디스크] BTS X 펭수의 만남, 댄스머신 펭수 1 2020.01.05 43
1420 국내 음원 차트 순위는 조작된 세계? 의혹 증폭 5 2020.01.05 140
1419 문 대통령, 윤석열 앞에서 "권력기관 개혁 멈추지 않겠다" 1 2020.01.02 107
1418 [패스 오브 엑자일] 엑자일콘 한눈에 다시 보기 1 2020.01.02 53
1417 2020년 게이머를 기다리는 기대작, 소개합니다 1 2020.01.02 47
1416 [로스트아크] 12월 31일(화) 업데이트 내역 안내 1 2020.01.02 66
1415 [V4] 개발자 편지 도착, 열한 번째 이야기 1 2020.01.02 28
1414 '공수처', '추다르크' 속도 붙는 검찰 개혁.. 윤석열 "국... 1 2020.01.02 62
1413 여론조사) 국민들은 야당을 심판하길 바란다 1 2020.01.02 104
1412 추다르크 법무장관 임명 1 2020.01.02 104
1411 BTS(방탄소년단), 미국의 2020년 카운트다운 영상 [BTS x ... 1 2020.01.01 189
1410 [FILA X BTS] One WORLD, One FILA! 휠라 with 방탄소년단 1 2020.01.01 83
1409 [생중계] BTS가 미국의 2020년 새해를 연다, 현지 생방송 ... 5 2020.01.01 155
1408 [속보] 공수처법 국회 통과, 검경 수사권 조정까지 통과되... 4 2019.12.30 164
1407 [생중계] 추미애(추다르크) 법무부장관 후보자 인사청문회 1 2019.12.30 90
1406 [V4] 길드원들의 특별한 모임! 제1회 ‘브이포차’ 모집 안내 2019.12.30 49
1405 요즘 잘 나간다는 유튜버들의 문제? (2) 1 2019.12.29 176
1404 레모나, BTS 모델효과로 글로벌 완판 행진 2 2019.12.27 100
1403 BTS가 미국의 2020년 새해를 연다 1 2019.12.27 76
1402 [가요대축제] 글로벌 문화대통령 BTS(방탄소년단) 퍼포먼... 1 2019.12.27 126
1401 요즘 잘 나간다는 유튜버들의 계약 문제? 1 2019.12.27 65
1400 자율규제였던 아이템 확률 공개, 공정위가 의무화 한다 1 2019.12.26 39
1399 [V4] 연말을 따뜻하게! 크리스마스 접속 선물 & 핫타임 1 2019.12.26 25
1398 [오버워치] 서울 다이너스티의 2020년 오버워치 리그 홈경... 1 2019.12.26 52
1397 [로스트아크] 12월 24일(화) 업데이트 내역 안내 1 2019.12.26 66
Board Pagination Prev 1 2 3 4 5 6 7 8 9 10 ... 15 Next
/ 15